Regional Weather Roundup
Issued by NWS Kansas City/Pleasant Hill, MO

Home | Current Version | Previous Version | Text Only | Print | Product List | Glossary On
Versions: 1 2 3 4 5 6 7 8 9 10 11 12 13 14 15 16 17 18 19 20 21 22 23 24 25 26 27 28 29 30 31 32 33 34 35 36 37 38 39 40 41 42 43 44 45 46 47 48 49 50
000
ASUS43 KEAX 250904
RWREAX

WEATHER ROUNDUP FOR EASTERN KANSAS AND NORTHWEST MISSOURI
NATIONAL WEATHER SERVICE KANSAS CITY/PLEASANT HILL MO
400 AM CDT SAT OCT 25 2014

KSZ040-057-103>105-MOZ028-029-037-043-251000-
...KANSAS CITY METROPOLITAN AREA...

CITY           SKY/WX    TMP DP  RH WIND       PRES   REMARKS
K.C. INTL      FOG       55  55 100 SW3       30.00F VSB 3/4
K.C. DOWNTOWN  CLEAR     60  59  96 CALM      30.00F FOG
LEES SUMMIT    PTCLDY    59  59 100 W6        30.01S FOG
OLATHE - IXD   CLEAR     59  58  96 SW6       30.02F FOG
OLATHE - OJC   CLEAR     60  59  96 CALM      30.01S FOG
LAWRENCE       FOG       52  51  97 NW3       30.01F VSB 1/4

$$

MOZ001>008-011>017-020>025-030>033-038>040-044>046-053-054-251000-
...NORTHERN AND CENTRAL MISSOURI...

CITY           SKY/WX    TMP DP  RH WIND       PRES   REMARKS
ST. JOSEPH     FOG       51  51 100 NW3       30.02S VSB 3/4
MOSBY          FOG       54  54 100 CALM      30.00F VSB 1/4
WHITEMAN AFB   CLEAR     59  57  94 SW5       30.00F
CLINTON        CLEAR     61  61 100 CALM      30.03S FOG
SEDALIA        CLEAR     63  59  87 SW8       30.01S
WARSAW         NOT AVBL
MARSHALL       CLEAR     64  63  94 SW5       30.01S
CHILLICOTHE      N/A     52  51  97 CALM      30.00S
MOBERLY        CLEAR     61  57  88 W6        30.00S
KIRKSVILLE     FOG       56  56 100 W5        30.00R VSB 1/4

$$

MOZ041-047>049-056>058-063>065-088>090-097-251000-
...EASTERN AND SOUTHERN MISSOURI...

CITY           SKY/WX    TMP DP  RH WIND       PRES   REMARKS
ST. LOUIS INTL NOT AVBL
SPIRIT OF STL  PTCLDY    59  57  93 W3        29.98R
COLUMBIA       CLEAR     61  60  97 W3        30.00S
JEFFERSON CITY PTCLDY    58  56  93 CALM      30.00R FOG
MEXICO         CLEAR    N/A N/A N/A W7        29.99S
ROLLA          PTCLDY    59  57  93 SW10      30.00S
LEBANON        CLEAR     63  59  88 W8        30.05S
OSAGE BEACH    PTCLDY    63  57  82 SW3       30.02S
SPRINGFIELD    CLEAR     58  55  90 SW5       30.06R
BRANSON        CLEAR     59  57  94 W6        30.08S
NEVADA         CLEAR     61  59  94 SW7       30.04S
JOPLIN         CLEAR     64  60  87 SW10      30.06R
WEST PLAINS    CLEAR     58  56  93 W7        30.06F

$$

IAZ060-094-KSZ022-034>040-054-083-096-NEZ052-066-093-251000-
...KANSAS...SOUTHEAST NEBRASKA AND IOWA...

CITY           SKY/WX    TMP DP  RH WIND       PRES   REMARKS
TOPEKA         FOG       55  55 100 S3        30.01F VSB 1/2
MANHATTAN      FOG       52  52 100 CALM      30.02S VSB 1/4
EMPORIA        CLEAR     58  58 100 CALM      30.03S FOG
CHANUTE        CLEAR     59  58  96 S3        30.03S FOG
WICHITA        CLEAR     59  57  93 SE5       30.03S
OMAHA          CLEAR     49  48  97 NW3       30.03S
LINCOLN        CLEAR     46  45  96 CALM      30.05R
FALLS CITY     FOG       51  50  96 NW3       30.02S VSB 1/4
LAMONI           N/A     53  52  96 NW7       30.01R
DES MOINES     CLEAR     53  50  89 N6        29.99F

$$




USA.gov is the U.S. government's official web portal to all federal, state and local government web resources and services.